TimeMST,TemperatureF,Dew PointF,Humidity,Sea Level PressureIn,VisibilityMPH,Wind Direction,Wind SpeedMPH,Gust SpeedMPH,PrecipitationIn,Events,Conditions,WindDirDegrees,DateUTC
12:53 AM,19.0,15.1,85,30.16,10.0,South,3.5,-,N/A,,Clear,190,2013-01-20 07:53:00
1:53 AM,19.9,16.0,85,30.19,10.0,Calm,Calm,-,N/A,,Clear,0,2013-01-20 08:53:00
2:53 AM,25.0,17.1,72,30.22,10.0,Calm,Calm,-,N/A,,Clear,0,2013-01-20 09:53:00
3:53 AM,30.9,19.0,61,30.29,10.0,NNW,33.4,39.1,N/A,,Clear,330,2013-01-20 10:53:00
4:53 AM,28.0,19.0,69,30.39,10.0,WNW,27.6,35.7,N/A,,Clear,300,2013-01-20 11:53:00
5:48 AM,26.6,19.4,74,30.34,10.0,NNW,13.8,-,N/A,,Overcast,340,2013-01-20 12:48:00
5:53 AM,26.1,19.0,75,30.47,10.0,NNW,17.3,23.0,N/A,,Overcast,340,2013-01-20 12:53:00
6:27 AM,24.8,19.4,80,30.34,10.0,NNW,18.4,25.3,N/A,,Overcast,330,2013-01-20 13:27:00
6:53 AM,24.1,19.0,81,30.48,10.0,North,17.3,-,N/A,,Overcast,350,2013-01-20 13:53:00
7:27 AM,23.0,19.4,86,30.36,5.0,NW,11.5,-,0.00,Snow,Light Snow,320,2013-01-20 14:27:00
7:53 AM,23.0,19.0,85,30.51,8.0,NW,15.0,-,0.00,Snow,Light Snow,310,2013-01-20 14:53:00
8:15 AM,21.2,17.6,86,30.37,10.0,WNW,13.8,-,0.00,,Overcast,300,2013-01-20 15:15:00
8:53 AM,21.9,17.1,82,30.53,10.0,NW,18.4,-,0.00,,Overcast,320,2013-01-20 15:53:00
9:53 AM,23.0,17.1,78,30.54,10.0,NW,13.8,-,N/A,,Overcast,310,2013-01-20 16:53:00
10:53 AM,23.0,15.8,74,30.38,10.0,NNW,13.8,-,N/A,,Overcast,340,2013-01-20 17:53:00
11:03 AM,23.0,15.8,74,30.38,10.0,NNW,13.8,-,N/A,,Overcast,330,2013-01-20 18:03:00
11:53 AM,23.0,16.0,74,30.52,10.0,NW,10.4,-,N/A,,Overcast,320,2013-01-20 18:53:00
12:53 PM,23.0,16.0,74,30.50,10.0,NNW,10.4,-,N/A,,Overcast,330,2013-01-20 19:53:00
1:53 PM,23.0,16.0,74,30.48,10.0,WNW,8.1,-,N/A,,Overcast,300,2013-01-20 20:53:00
2:53 PM,24.1,17.1,75,30.45,10.0,NNW,6.9,-,N/A,,Overcast,330,2013-01-20 21:53:00
3:53 PM,23.0,17.1,78,30.43,10.0,NNW,5.8,-,N/A,,Overcast,340,2013-01-20 22:53:00
4:53 PM,21.9,16.0,78,30.42,10.0,NW,5.8,-,N/A,,Scattered Clouds,320,2013-01-20 23:53:00
5:53 PM,19.0,14.0,81,30.44,10.0,North,4.6,-,N/A,,Partly Cloudy,350,2013-01-21 00:53:00
6:21 PM,17.6,14.0,86,30.30,10.0,NW,4.6,-,N/A,,Mostly Cloudy,320,2013-01-21 01:21:00
6:53 PM,19.0,15.1,85,30.45,10.0,Calm,Calm,-,N/A,,Overcast,0,2013-01-21 01:53:00
7:53 PM,19.9,14.0,78,30.45,10.0,Calm,Calm,-,N/A,,Overcast,0,2013-01-21 02:53:00
8:45 PM,21.2,15.8,80,30.28,10.0,Calm,Calm,-,N/A,,Overcast,0,2013-01-21 03:45:00
8:53 PM,21.0,15.1,78,30.44,10.0,WNW,5.8,-,N/A,,Overcast,300,2013-01-21 03:53:00
9:53 PM,19.9,16.0,85,30.43,10.0,NNW,4.6,-,N/A,,Overcast,330,2013-01-21 04:53:00
10:53 PM,21.0,16.0,81,30.43,10.0,WNW,5.8,-,N/A,,Overcast,290,2013-01-21 05:53:00
11:53 PM,19.9,16.0,85,30.40,10.0,Calm,Calm,-,N/A,,Overcast,0,2013-01-21 06:53:00